| time (UTC) | temp C | wind direction | speed KPH | gust KPH | rain 1hr cm | rain 24hr cm | rain mn cm | humidity % | barometer mb |
| 20260504231956 | 6 | 231 | 3.2 | 3.2 | 0.00 | 0.00 | 0.00 | 81 | 996.4 |
| 20260504231456 | 6 | 230 | 1.6 | 3.2 | 0.00 | 0.00 | 0.00 | 81 | 996.7 |
| 20260504230955 | 6 | 230 | 0.0 | 0.0 | 0.00 | 0.00 | 0.00 | 80 | 996.5 |
| 20260504230455 | 7 | 230 | 0.0 | 0.0 | 0.00 | 0.00 | 0.00 | 78 | 996.6 |
| 20260504225954 | 7 | 229 | 0.0 | 1.6 | 0.00 | 0.00 | 0.00 | 76 | 996.5 |
| 20260504225454 | 7 | 230 | 1.6 | 3.2 | 0.00 | 0.00 | 0.00 | 76 | 996.6 |
| 20260504224953 | 7 | 227 | 1.6 | 3.2 | 0.00 | 0.00 | 0.00 | 76 | 996.6 |
| 20260504224452 | 7 | 211 | 0.0 | 0.0 | 0.00 | 0.00 | 0.00 | 76 | 996.6 |
| 20260504223952 | 7 | 210 | 0.0 | 0.0 | 0.00 | 0.00 | 0.00 | 76 | 996.6 |
| 20260504223451 | 7 | 211 | 0.0 | 0.0 | 0.00 | 0.00 | 0.00 | 76 | 996.7 |
| 20260504222951 | 7 | 210 | 0.0 | 0.0 | 0.00 | 0.00 | 0.00 | 75 | 996.6 |
| 20260504222450 | 8 | 210 | 0.0 | 0.0 | 0.00 | 0.00 | 0.00 | 74 | 996.7 |
| 20260504221949 | 8 | 210 | 0.0 | 0.0 | 0.00 | 0.00 | 0.00 | 71 | 996.7 |
| 20260504221449 | 8 | 210 | 0.0 | 0.0 | 0.00 | 0.00 | 0.00 | 70 | 996.5 |
| 20260504220948 | 9 | 210 | 0.0 | 0.0 | 0.00 | 0.00 | 0.00 | 70 | 996.6 |
| 20260504220448 | 9 | 211 | 0.0 | 0.0 | 0.00 | 0.00 | 0.00 | 68 | 996.6 |
| 20260504215947 | 9 | 211 | 0.0 | 1.6 | 0.00 | 0.00 | 0.00 | 67 | 996.6 |
| 20260504215447 | 9 | 180 | 0.0 | 0.0 | 0.00 | 0.00 | 0.00 | 66 | 996.7 |
| 20260504214946 | 10 | 180 | 0.0 | 0.0 | 0.00 | 0.00 | 0.00 | 65 | 996.7 |
| 20260504214445 | 10 | 180 | 0.0 | 0.0 | 0.00 | 0.00 | 0.00 | 64 | 996.6 |
| 20260504213944 | 10 | 183 | 0.0 | 1.6 | 0.00 | 0.00 | 0.00 | 64 | 996.5 |
| 20260504213444 | 10 | 127 | 0.0 | 0.0 | 0.00 | 0.00 | 0.00 | 63 | 996.6 |
| 20260504212943 | 10 | 190 | 0.0 | 0.0 | 0.00 | 0.00 | 0.00 | 63 | 996.7 |
| 20260504212443 | 11 | 132 | 0.0 | 1.6 | 0.00 | 0.00 | 0.00 | 62 | 996.6 |
| 20260504211942 | 11 | 227 | 0.0 | 0.0 | 0.00 | 0.00 | 0.00 | 61 | 996.5 |
| 20260504211442 | 11 | 227 | 0.0 | 0.0 | 0.00 | 0.00 | 0.00 | 59 | 996.5 |
| 20260504210941 | 12 | 227 | 0.0 | 0.0 | 0.00 | 0.00 | 0.00 | 56 | 996.3 |
| 20260504210441 | 12 | 226 | 0.0 | 1.6 | 0.00 | 0.00 | 0.00 | 55 | 996.4 |
| 20260504205940 | 13 | 227 | 0.0 | 0.0 | 0.00 | 0.00 | 0.00 | 52 | 996.6 |
| 20260504205439 | 13 | 226 | 0.0 | 0.0 | 0.00 | 0.00 | 0.00 | 49 | 996.5 |
| 20260504204939 | 14 | 226 | 0.0 | 1.6 | 0.00 | 0.00 | 0.00 | 49 | 996.5 |
| 20260504204438 | 14 | 227 | 1.6 | 3.2 | 0.00 | 0.00 | 0.00 | 48 | 996.5 |
| 20260504203938 | 15 | 240 | 3.2 | 4.8 | 0.00 | 0.00 | 0.00 | 46 | 996.3 |
| 20260504203437 | 16 | 229 | 6.4 | 8.0 | 0.00 | 0.00 | 0.00 | 43 | 996.4 |
| 20260504202937 | 16 | 233 | 6.4 | 8.0 | 0.00 | 0.00 | 0.00 | 42 | 996.2 |
| 20260504202436 | 15 | 223 | 3.2 | 4.8 | 0.00 | 0.00 | 0.00 | 43 | 996.4 |
| 20260504201935 | 15 | 229 | 3.2 | 3.2 | 0.00 | 0.00 | 0.00 | 45 | 996.3 |
| 20260504201434 | 15 | 226 | 3.2 | 3.2 | 0.00 | 0.00 | 0.00 | 44 | 996.3 |
| 20260504200934 | 16 | 230 | 1.6 | 3.2 | 0.00 | 0.00 | 0.00 | 43 | 996.5 |
| 20260504200434 | 17 | 229 | 6.4 | 6.4 | 0.00 | 0.00 | 0.00 | 39 | 996.3 |
| 20260504195932 | 16 | 225 | 3.2 | 4.8 | 0.00 | 0.00 | 0.00 | 40 | 996.3 |
| 20260504195432 | 17 | 222 | 4.8 | 6.4 | 0.00 | 0.00 | 0.00 | 39 | 996.2 |
| 20260504194931 | 17 | 232 | 3.2 | 4.8 | 0.00 | 0.00 | 0.00 | 38 | 996.1 |
| 20260504194430 | 16 | 235 | 3.2 | 4.8 | 0.00 | 0.00 | 0.00 | 39 | 996.5 |
| 20260504193930 | 17 | 216 | 6.4 | 8.0 | 0.00 | 0.00 | 0.00 | 38 | 996.2 |
| 20260504193428 | 17 | 232 | 4.8 | 6.4 | 0.00 | 0.00 | 0.00 | 39 | 996.1 |
| 20260504192928 | 17 | 227 | 4.8 | 6.4 | 0.00 | 0.00 | 0.00 | 39 | 996.0 |
| 20260504192427 | 17 | 263 | 4.8 | 6.4 | 0.00 | 0.00 | 0.00 | 39 | 996.1 |
| 20260504191926 | 17 | 208 | 4.8 | 6.4 | 0.00 | 0.00 | 0.00 | 38 | 996.0 |
| 20260504191426 | 17 | 230 | 3.2 | 3.2 | 0.00 | 0.00 | 0.00 | 39 | 996.1 |
| 20260504190925 | 17 | 234 | 6.4 | 8.0 | 0.00 | 0.00 | 0.00 | 39 | 996.0 |
| 20260504190425 | 17 | 223 | 3.2 | 4.8 | 0.00 | 0.00 | 0.00 | 39 | 995.8 |
| 20260504185924 | 17 | 226 | 4.8 | 6.4 | 0.00 | 0.00 | 0.00 | 40 | 996.2 |
| 20260504185424 | 16 | 231 | 4.8 | 6.4 | 0.00 | 0.00 | 0.00 | 41 | 996.0 |
| 20260504184923 | 17 | 232 | 6.4 | 8.0 | 0.00 | 0.00 | 0.00 | 40 | 996.0 |
| 20260504184422 | 17 | 248 | 4.8 | 6.4 | 0.00 | 0.00 | 0.00 | 39 | 996.0 |
| 20260504183921 | 17 | 248 | 4.8 | 4.8 | 0.00 | 0.00 | 0.00 | 41 | 996.0 |
| 20260504183421 | 17 | 243 | 3.2 | 4.8 | 0.00 | 0.00 | 0.00 | 39 | 996.0 |
| 20260504182920 | 17 | 231 | 3.2 | 3.2 | 0.00 | 0.00 | 0.00 | 39 | 996.0 |
| 20260504182420 | 17 | 223 | 3.2 | 4.8 | 0.00 | 0.00 | 0.00 | 40 | 996.0 |
| 20260504181919 | 17 | 231 | 3.2 | 4.8 | 0.00 | 0.00 | 0.00 | 38 | 995.9 |
| 20260504181419 | 18 | 229 | 3.2 | 4.8 | 0.00 | 0.00 | 0.00 | 37 | 995.8 |
| 20260504180918 | 18 | 228 | 1.6 | 3.2 | 0.00 | 0.00 | 0.00 | 37 | 995.7 |
| 20260504180418 | 18 | 236 | 3.2 | 4.8 | 0.00 | 0.00 | 0.00 | 37 | 995.6 |
| 20260504175917 | 18 | 219 | 3.2 | 3.2 | 0.00 | 0.00 | 0.00 | 37 | 995.9 |
| 20260504175416 | 18 | 230 | 4.8 | 8.0 | 0.00 | 0.00 | 0.00 | 36 | 995.7 |
| 20260504174916 | 18 | 200 | 0.0 | 1.6 | 0.00 | 0.00 | 0.00 | 37 | 995.6 |
| 20260504174415 | 18 | 223 | 6.4 | 8.0 | 0.00 | 0.00 | 0.00 | 35 | 995.6 |
| 20260504173915 | 18 | 229 | 6.4 | 6.4 | 0.00 | 0.00 | 0.00 | 35 | 995.9 |
| 20260504173414 | 18 | 223 | 0.0 | 1.6 | 0.00 | 0.00 | 0.00 | 35 | 995.8 |
| 20260504172914 | 19 | 233 | 4.8 | 6.4 | 0.00 | 0.00 | 0.00 | 34 | 995.6 |
| 20260504172413 | 19 | 142 | 1.6 | 1.6 | 0.00 | 0.00 | 0.00 | 35 | 995.6 |
| 20260504171913 | 20 | 234 | 6.4 | 8.0 | 0.00 | 0.00 | 0.00 | 33 | 995.5 |
| 20260504171412 | 20 | 221 | 3.2 | 4.8 | 0.00 | 0.00 | 0.00 | 32 | 995.4 |
| 20260504170911 | 20 | 219 | 1.6 | 3.2 | 0.00 | 0.00 | 0.00 | 32 | 995.2 |
| 20260504170411 | 20 | 224 | 1.6 | 4.8 | 0.00 | 0.00 | 0.00 | 33 | 995.5 |
| 20260504160405 | 23 | 95 | 0.0 | 1.6 | 0.00 | 0.00 | 0.00 | 28 | 995.4 |
| 20260504150858 | 24 | 238 | 1.6 | 3.2 | 0.00 | 0.00 | 0.00 | 25 | 995.6 |
| 20260504150358 | 25 | 140 | 6.4 | 11.3 | 0.00 | 0.00 | 0.00 | 24 | 995.8 |
| 20260504140850 | 25 | 156 | 3.2 | 4.8 | 0.00 | 0.00 | 0.00 | 26 | 996.0 |
| 20260504140349 | 25 | 118 | 3.2 | 6.4 | 0.00 | 0.00 | 0.00 | 26 | 996.1 |
| 20260504130338 | 25 | 198 | 3.2 | 4.8 | 0.00 | 0.00 | 0.00 | 28 | 996.7 |
| 20260504110324 | 23 | 219 | 6.4 | 11.3 | 0.00 | 0.00 | 0.00 | 34 | 997.7 |
| 20260504100316 | 21 | 235 | 8.0 | 11.3 | 0.00 | 0.00 | 0.00 | 36 | 998.5 |
| 20260504081804 | 18 | 121 | 4.8 | 6.4 | 0.00 | 0.00 | 0.00 | 43 | 999.6 |
| 20260504081303 | 18 | 212 | 0.0 | 1.6 | 0.00 | 0.00 | 0.00 | 44 | 999.6 |
| 20260504080803 | 18 | 231 | 3.2 | 4.8 | 0.00 | 0.00 | 0.00 | 44 | 999.5 |
| 20260504080302 | 18 | 237 | 6.4 | 8.0 | 0.00 | 0.00 | 0.00 | 43 | 999.6 |
| 20260504070255 | 16 | 136 | 1.6 | 1.6 | 0.00 | 0.00 | 0.00 | 47 | 999.4 |
| 20260504060247 | 15 | 104 | 0.0 | 1.6 | 0.00 | 0.00 | 0.00 | 53 | 999.3 |
| 20260504050736 | 11 | 229 | 0.0 | 0.0 | 0.00 | 0.00 | 0.00 | 68 | 999.3 |
| 20260504050236 | 11 | 229 | 0.0 | 1.6 | 0.00 | 0.00 | 0.00 | 72 | 999.2 |
| 20260504045735 | 10 | 229 | 0.0 | 0.0 | 0.00 | 0.00 | 0.00 | 71 | 999.5 |
| 20260504045235 | 9 | 230 | 0.0 | 0.0 | 0.00 | 0.00 | 0.00 | 76 | 999.4 |
| 20260504044734 | 8 | 230 | 0.0 | 0.0 | 0.00 | 0.00 | 0.00 | 76 | 999.4 |
| 20260504044234 | 8 | 230 | 0.0 | 0.0 | 0.00 | 0.00 | 0.00 | 77 | 999.6 |
| 20260504043733 | 7 | 230 | 0.0 | 0.0 | 0.00 | 0.00 | 0.00 | 80 | 999.5 |
| 20260504043233 | 6 | 230 | 0.0 | 0.0 | 0.00 | 0.00 | 0.00 | 83 | 999.2 |
| 20260504042732 | 5 | 230 | 0.0 | 0.0 | 0.00 | 0.00 | 0.00 | 86 | 999.4 |
| 20260504042231 | 4 | 230 | 0.0 | 0.0 | 0.00 | 0.00 | 0.00 | 89 | 999.4 |
| 20260504041731 | 4 | 230 | 0.0 | 0.0 | 0.00 | 0.00 | 0.00 | 92 | 999.4 |
| 20260504041231 | 3 | 230 | 0.0 | 0.0 | 0.00 | 0.00 | 0.00 | 96 | 999.5 |
| 20260504040730 | 2 | 230 | 0.0 | 0.0 | 0.00 | 0.00 | 0.00 | 97 | 999.3 |
| 20260504040229 | 1 | 230 | 0.0 | 0.0 | 0.00 | 0.00 | 0.00 | 97 | 999.5 |
| 20260504035729 | 1 | 231 | 1.6 | 1.6 | 0.00 | 0.00 | 0.00 | 98 | 999.3 |
| 20260504035228 | 1 | 230 | 1.6 | 1.6 | 0.00 | 0.00 | 0.00 | 98 | 999.3 |
| 20260504034728 | 1 | 229 | 0.0 | 0.0 | 0.00 | 0.00 | 0.00 | 98 | 999.3 |
| 20260504034227 | 1 | 229 | 0.0 | 0.0 | 0.00 | 0.00 | 0.00 | 98 | 999.3 |
| 20260504033727 | 1 | 229 | 0.0 | 1.6 | 0.00 | 0.00 | 0.00 | 98 | 999.5 |
| 20260504033226 | 1 | 229 | 0.0 | 1.6 | 0.00 | 0.00 | 0.00 | 98 | 999.4 |
| 20260504032726 | 0 | 226 | 1.6 | 3.2 | 0.00 | 0.00 | 0.00 | 98 | 999.4 |
| 20260504032225 | 0 | 228 | 1.6 | 1.6 | 0.00 | 0.00 | 0.00 | 98 | 999.5 |
| 20260504031724 | 0 | 223 | 1.6 | 1.6 | 0.00 | 0.00 | 0.00 | 98 | 999.3 |
| 20260504031224 | 0 | 226 | 0.0 | 0.0 | 0.00 | 0.00 | 0.00 | 98 | 999.5 |
| 20260504030723 | 0 | 225 | 0.0 | 0.0 | 0.00 | 0.00 | 0.00 | 98 | 999.4 |
| 20260504030223 | 0 | 225 | 0.0 | 0.0 | 0.00 | 0.00 | 0.00 | 98 | 999.5 |
| 20260504025722 | 0 | 225 | 0.0 | 0.0 | 0.00 | 0.00 | 0.00 | 98 | 999.4 |
| 20260504025222 | 0 | 217 | 0.0 | 0.0 | 0.00 | 0.00 | 0.00 | 98 | 999.5 |
| 20260504024721 | 0 | 115 | 0.0 | 0.0 | 0.00 | 0.00 | 0.00 | 98 | 999.2 |
| 20260504024221 | 0 | 214 | 1.6 | 1.6 | 0.00 | 0.00 | 0.00 | 98 | 999.4 |
| 20260504023720 | 0 | 224 | 1.6 | 1.6 | 0.00 | 0.00 | 0.00 | 98 | 999.5 |
| 20260504023220 | 0 | 230 | 0.0 | 0.0 | 0.00 | 0.00 | 0.00 | 98 | 999.3 |
| 20260504022719 | 0 | 231 | 0.0 | 0.0 | 0.00 | 0.00 | 0.00 | 97 | 999.4 |
| 20260504022219 | 0 | 231 | 0.0 | 0.0 | 0.00 | 0.00 | 0.00 | 97 | 999.4 |
| 20260504021718 | 0 | 231 | 0.0 | 0.0 | 0.00 | 0.00 | 0.00 | 97 | 999.3 |
| 20260504021218 | 0 | 231 | 0.0 | 0.0 | 0.00 | 0.00 | 0.00 | 97 | 999.3 |
| 20260504020717 | 0 | 231 | 0.0 | 0.0 | 0.00 | 0.00 | 0.00 | 97 | 999.2 |
| 20260504020216 | 0 | 231 | 0.0 | 0.0 | 0.00 | 0.00 | 0.00 | 97 | 999.3 |
| 20260504015716 | 0 | 231 | 0.0 | 0.0 | 0.00 | 0.00 | 0.00 | 97 | 999.3 |
| 20260504015216 | 0 | 231 | 0.0 | 0.0 | 0.00 | 0.00 | 0.00 | 97 | 999.3 |
| 20260504014715 | 0 | 231 | 0.0 | 0.0 | 0.00 | 0.00 | 0.00 | 97 | 999.1 |
| 20260504014214 | 0 | 231 | 0.0 | 1.6 | 0.00 | 0.00 | 0.00 | 97 | 999.4 |
| 20260504013714 | 0 | 231 | 0.0 | 0.0 | 0.00 | 0.00 | 0.00 | 97 | 999.3 |
| 20260504013213 | 0 | 231 | 0.0 | 0.0 | 0.00 | 0.00 | 0.00 | 97 | 999.3 |
| 20260504012713 | 0 | 231 | 0.0 | 0.0 | 0.00 | 0.00 | 0.00 | 96 | 999.4 |
| 20260504012212 | 0 | 231 | 0.0 | 1.6 | 0.00 | 0.00 | 0.00 | 96 | 999.4 |
| 20260504011712 | 0 | 231 | 0.0 | 0.0 | 0.00 | 0.00 | 0.00 | 96 | 999.5 |
| 20260504011212 | 1 | 231 | 0.0 | 0.0 | 0.00 | 0.00 | 0.00 | 96 | 999.4 |
| 20260504010711 | 0 | 231 | 0.0 | 0.0 | 0.00 | 0.00 | 0.00 | 96 | 999.4 |
| 20260504010210 | 0 | 231 | 0.0 | 0.0 | 0.00 | 0.00 | 0.00 | 96 | 999.4 |
| 20260504005710 | 1 | 231 | 0.0 | 0.0 | 0.00 | 0.00 | 0.00 | 96 | 999.4 |
| 20260504005209 | 1 | 231 | 0.0 | 0.0 | 0.00 | 0.00 | 0.00 | 96 | 999.4 |
| 20260504004709 | 0 | 231 | 0.0 | 0.0 | 0.00 | 0.00 | 0.00 | 96 | 999.5 |
| 20260504004208 | 0 | 231 | 0.0 | 0.0 | 0.00 | 0.00 | 0.00 | 96 | 999.4 |
| 20260504003708 | 1 | 231 | 0.0 | 0.0 | 0.00 | 0.00 | 0.00 | 96 | 999.6 |
| 20260504003207 | 1 | 231 | 0.0 | 0.0 | 0.00 | 0.00 | 0.00 | 96 | 999.4 |
| 20260504002707 | 0 | 231 | 0.0 | 0.0 | 0.00 | 0.00 | 0.00 | 95 | 999.5 |
| 20260504002206 | 1 | 231 | 0.0 | 0.0 | 0.00 | 0.00 | 0.00 | 95 | 999.5 |
| 20260504001706 | 1 | 231 | 0.0 | 0.0 | 0.00 | 0.00 | 0.00 | 95 | 999.6 |
| 20260504001205 | 1 | 231 | 0.0 | 0.0 | 0.00 | 0.00 | 0.00 | 94 | 999.5 |
| 20260504000705 | 1 | 231 | 0.0 | 0.0 | 0.00 | 0.00 | 0.00 | 94 | 999.6 |
| 20260504000204 | 1 | 231 | 0.0 | 0.0 | 0.00 | 0.00 | 0.00 | 94 | 999.6 |
| 20260503235703 | 1 | 231 | 0.0 | 0.0 | 0.00 | 0.00 | 0.00 | 94 | 999.6 |
| 20260503235203 | 1 | 231 | 0.0 | 0.0 | 0.00 | 0.00 | 0.00 | 94 | 999.5 |
| 20260503234702 | 1 | 231 | 0.0 | 0.0 | 0.00 | 0.00 | 0.00 | 94 | 999.6 |
| 20260503234202 | 1 | 231 | 0.0 | 0.0 | 0.00 | 0.00 | 0.00 | 94 | 999.6 |
| 20260503233701 | 1 | 231 | 0.0 | 0.0 | 0.00 | 0.00 | 0.00 | 94 | 999.6 |
| 20260503233201 | 1 | 231 | 0.0 | 0.0 | 0.00 | 0.00 | 0.00 | 94 | 999.5 |
| 20260503232700 | 1 | 231 | 0.0 | 0.0 | 0.00 | 0.00 | 0.00 | 94 | 999.5 |
| 20260503232159 | 1 | 231 | 0.0 | 0.0 | 0.00 | 0.00 | 0.00 | 93 | 999.6 |